User: anonymous   Login
Location: Unspecified
(0.0000°N, 0.0000°E)
Time: 03:34:03
(UTC+00:00)
Language:

PROBA 2 - Orbit

View from above orbital plane
View from above orbital plane
View from above satellite
View from above satellite

Ground track
Ground track

The orbit data is extracted from the following two-line orbital elements,

1 36037U 09059B   17117.87706725 +.00000014 +00000-0 +14246-4 0  9997
2 36037 098.2545 312.1235 0014417 128.0628 232.1871 14.52995764396739
Epoch (UTC): 27 April 2017 21:02:58
Eccentricity: 0.0014417
inclination: 98.2545°
perigee height: 705 km
apogee height: 726 km
right ascension of ascending node: 312.1235°
argument of perigee: 128.0628°
revolutions per day: 14.52995764
mean anomaly at epoch: 232.1871°
orbit number at epoch: 39673

The dashed part of the orbit path shows where the satellite is in the earth's shadow,  

DLR